Anniston, AL

2:28 PM CST on November 18, 2019 (GMT -0600)
Anniston Metro

Weather History for KANB - September, 2019

Change the Weather History Date:

Sunday, September 22, 2019

  Actual Average Record
Temperature  
Mean Temperature 76 °F 71 °F  
Max Temperature 91 °F 82 °F 98 °F (1955)
Min Temperature 60 °F 61 °F 36 °F (1903)
Degree Days  
Heating Degree Days 0    
Month to date heating degree days 0  
Since 1 July heating degree days 0  
Cooling Degree Days 10    
Growing Degree Days 25 (Base 50)    
Moisture  
Dew Point 58 °F    
Average Humidity 60    
Maximum Humidity 90    
Minimum Humidity 29    
Precipitation  
Precipitation 0.00 in 0.10 in 2.61 in (1951)
Month to date precipitation 0.42 2.14  
Year to date precipitation 39.59 37.06  
Sea Level Pressure  
Sea Level Pressure 30.14 in    
Wind  
Wind Speed 3 mph (East)    
Max Wind Speed 10 mph    
Max Gust Speed 13 mph    
Visibility 10 miles    
Events      
T = Trace of Precipitation, MM = Missing Value Source: NWS Daily Summary

Daily Weather History Graph

Daily Weather History Graph

Search for Another Location

Airport or City:

Astronomy

Sep. 22, 2019 Rise Set
Actual Time 6:31 AM CDT 6:40 PM CDT
Civil Twilight 6:06 AM CDT 7:05 PM CDT
Nautical Twilight 5:37 AM CDT 7:34 PM CDT
Astronomical Twilight 5:08 AM CDT 8:03 PM CDT
Moon No Moon Rise 2:17 PM CDT (9/22)
Length of Visible Light 12h 58m
Length of Day
12h 09m
Last Quarter, 44% of the Moon is Illuminated
Sep 22
Last Quarter
Sep 28
New
Oct 5
First Quarter
Oct 13
Full
Oct 21
Last Quarter

Hourly Weather History & Observations

Time (CDT) Temp. Heat Index Dew Point Humidity Pressure Visibility Wind Dir Wind Speed Gust Speed Precip Events Conditions
12:53 AM 66.0 °F - 60.1 °F 81% 30.17 in 10.0 mi East 4.6 mph - N/A   Clear
1:53 AM 64.0 °F - 59.0 °F 84% 30.17 in 10.0 mi East 3.5 mph - N/A   Clear
2:53 AM 64.0 °F - 59.0 °F 84% 30.17 in 10.0 mi Calm Calm - N/A   Clear
3:53 AM 64.0 °F - 59.0 °F 84% 30.17 in 10.0 mi NE 4.6 mph - N/A   Clear
4:53 AM 61.0 °F - 57.9 °F 90% 30.19 in 10.0 mi Calm Calm - N/A   Clear
5:53 AM 61.0 °F - 57.9 °F 90% 30.20 in 10.0 mi ESE 3.5 mph - N/A   Clear
6:53 AM 61.0 °F - 57.9 °F 90% 30.21 in 10.0 mi Calm Calm - N/A   Clear
7:53 AM 68.0 °F - 61.0 °F 78% 30.22 in 10.0 mi East 4.6 mph - N/A   Clear
9:53 AM 77.0 °F - 62.1 °F 60% 30.23 in 10.0 mi Variable 3.5 mph - N/A   Clear
10:53 AM 82.0 °F 83.1 °F 63.0 °F 52% 30.20 in 10.0 mi Calm Calm - N/A   Clear
11:53 AM 84.9 °F 85.0 °F 61.0 °F 44% 30.17 in 10.0 mi Variable 3.5 mph - N/A   Mostly Cloudy
12:53 PM 87.1 °F 85.9 °F 57.0 °F 36% 30.14 in 10.0 mi North 9.2 mph - N/A   Partly Cloudy
1:53 PM 88.0 °F 86.5 °F 55.9 °F 34% 30.11 in 10.0 mi Variable 3.5 mph - N/A   Clear
2:53 PM 89.1 °F 86.9 °F 54.0 °F 30% 30.08 in 10.0 mi North - - N/A   Clear
4:53 PM 89.1 °F 86.9 °F 54.0 °F 30% 30.06 in 10.0 mi ESE 5.8 mph - N/A   Clear
5:53 PM 87.1 °F 85.1 °F 54.0 °F 32% 30.06 in 10.0 mi SE 4.6 mph - N/A   Clear
6:53 PM 78.1 °F - 57.0 °F 48% 30.09 in 10.0 mi SSE 3.5 mph - N/A   Clear
7:53 PM 75.9 °F - 55.9 °F 50% 30.09 in 10.0 mi ENE 3.5 mph - N/A   Clear
8:53 PM 71.1 °F - 59.0 °F 66% 30.11 in 10.0 mi Calm Calm - N/A   Clear
9:53 PM 69.1 °F - 59.0 °F 70% 30.11 in 10.0 mi Calm Calm - N/A   Clear
10:53 PM 66.9 °F - 59.0 °F 76% 30.11 in 10.0 mi Calm Calm - N/A   Clear
11:53 PM 64.9 °F - 59.0 °F 81% 30.10 in 10.0 mi Calm Calm - N/A   Clear